Weather History for Stanley, ID

Change the Weather History Date:

Monday, March 24, 2014

  Actual Average Record
Temperature  
Mean Temperature 29 °F 29 °F  
Max Temperature 50 °F 43 °F 58 °F (1922)
Min Temperature 8 °F 15 °F -19 °F (1965)
Degree Days  
Heating Degree Days 36 36  
Month to date heating degree days 893 934  
Since 1 July heating degree days 8061 8468  
Cooling Degree Days 0 0  
Month to date cooling degree days 0 0  
Year to date cooling degree days 0 0  
Moisture  
Dew Point 13 °F    
Average Humidity 55    
Maximum Humidity 91    
Minimum Humidity 18    
Precipitation  
Precipitation 0.00 in 0.07 in 0.42 in (1928)
Month to date precipitation 1.98 1.36  
Year to date precipitation 8.52 4.67  
Sea Level Pressure  
Sea Level Pressure 30.22 in    
Wind  
Wind Speed 2 mph (SSE)    
Max Wind Speed 9 mph    
Max Gust Speed 13 mph    
T = Trace of Precipitation, MM = Missing Value Source: NWS Daily Summary

Daily Weather History Graph

Daily Weather History Graph

Search for Another Location

Airport:

Trip Planner

Search our weather history database for the weather conditions in past years. The results will help you decide how hot, cold, wet, or windy it might be!

Date:

Astronomy

Mar. 24, 2014 Rise Set
Actual Time 7:35 AM MDT 7:57 PM MDT
Civil Twilight 7:06 AM MDT 8:26 PM MDT
Nautical Twilight 6:32 AM MDT 9:00 PM MDT
Astronomical Twilight 5:57 AM MDT 9:35 PM MDT
Moon 3:21 AM MDT (3/24) 1:15 PM MDT (3/24)
Length of Visible Light 13h 19m
Length of Day
12h 21m
Last Quarter, 42% of the Moon is Illuminated
Mar 24
Last Quarter
Mar 30
New
Apr 7
First Quarter
Apr 15
Full
Apr 22
Last Quarter

Hourly Weather History & Observations

Time (MDT) Temp. Windchill Dew Point Humidity Pressure Visibility Wind Dir Wind Speed Gust Speed Precip Events Conditions
12:51 AM 19.9 °F 14.9 °F 12.9 °F 74% 30.19 in - South 3.5 mph - N/A   Unknown
1:15 AM 73.4 °F - 37.4 °F 27% - - North - - N/A   Unknown
1:51 AM 19.0 °F - 12.0 °F 74% 30.19 in - Calm Calm - N/A   Unknown
2:51 AM 15.1 °F 9.4 °F 9.0 °F 77% 30.21 in - Variable 3.5 mph - N/A   Unknown
3:51 AM 14.0 °F - 9.0 °F 80% 30.21 in - Calm Calm - N/A   Unknown
4:51 AM 10.9 °F - 7.0 °F 84% 30.24 in - Calm Calm - N/A   Unknown
5:51 AM 12.0 °F 5.9 °F 7.0 °F 80% 30.23 in - SSE 3.5 mph - N/A   Unknown
6:51 AM 10.9 °F 2.9 °F 7.0 °F 84% 30.25 in - SSE 4.6 mph - N/A   Unknown
7:51 AM 9.0 °F - 6.1 °F 88% 30.30 in - Calm Calm - N/A   Unknown
8:51 AM 12.0 °F - 8.1 °F 84% 30.31 in - Calm Calm - N/A   Unknown
9:51 AM 19.9 °F - 10.0 °F 65% 30.29 in - Calm Calm - N/A   Unknown
10:51 AM 23.0 °F - 10.9 °F 60% 30.30 in - Calm Calm - N/A   Unknown
11:51 AM 30.9 °F 27.5 °F 10.9 °F 43% 30.27 in - NNW 3.5 mph - N/A   Unknown
12:51 PM 35.1 °F 32.2 °F 14.0 °F 42% 30.23 in - North 3.5 mph - N/A   Unknown
1:51 PM 39.0 °F - 12.9 °F 34% 30.22 in - Calm Calm - N/A   Unknown
2:51 PM 46.0 °F - 7.0 °F 20% 30.19 in - Calm Calm - N/A   Unknown
3:51 PM 48.9 °F - 7.0 °F 18% 30.17 in - Calm Calm - N/A   Unknown
4:51 PM 48.0 °F - 10.9 °F 22% 30.17 in - North 8.1 mph - N/A   Unknown
5:51 PM 46.9 °F - 12.9 °F 25% 30.17 in - Variable 3.5 mph - N/A   Unknown
6:51 PM 44.1 °F - 14.0 °F 30% 30.17 in - Calm Calm - N/A   Unknown
7:51 PM 35.1 °F 31.0 °F 18.0 °F 50% 30.21 in - South 4.6 mph - N/A   Unknown
8:51 PM 28.9 °F - 18.0 °F 64% 30.23 in - Calm Calm - N/A   Unknown
9:51 PM 27.0 °F 23.0 °F 18.0 °F 69% 30.20 in - ESE 3.5 mph - N/A   Unknown
10:51 PM 30.0 °F 23.2 °F 17.1 °F 59% 30.17 in - SSE 6.9 mph - N/A   Unknown
11:51 PM 26.1 °F - 16.0 °F 66% 30.14 in - Calm Calm - N/A   Unknown